[Date Prev][Date Next][Thread Prev][Thread Next] - [Date Index][Thread Index][Author Index]

2 Line ISS Keps 3-16



ISS
1 25544U 98067A   03075.49153883  .00029250  00000-0  37610-3 0  7880
2 25544  51.6356 125.7998 0008028 335.4687 166.4438 15.58798509246543


----
Via the sarex mailing list at AMSAT.ORG courtesy of AMSAT-NA.
To unsubscribe, send "unsubscribe sarex" to Majordomo@amsat.org



AMSAT Top AMSAT Home